Regional Weather Roundup
Issued by NWS Upton, NY

Current Version | Previous Version | Graphics & Text | Print | Product List | Glossary Off
Versions: 1 2 3 4 5 6 7 8 9 10 11 12 13 14 15 16 17 18 19 20 21 22 23 24 25 26 27 28 29 30 31 32 33 34 35 36 37 38 39 40 41 42 43 44 45 46 47 48

000
ASUS41 KOKX 282105
RWROKX

REGIONAL WEATHER ROUNDUP
NATIONAL WEATHER SERVICE NEW YORK NY
500 PM EDT THU AUG 28 2014

NOTE: "FAIR" INDICATES FEW OR NO CLOUDS BELOW 12,000 FEET WITH NO
SIGNIFICANT WEATHER AND/OR OBSTRUCTIONS TO VISIBILITY.

NYZ071-072-176-178-NJZ106-104-282200-
NEW YORK CITY METRO AREA


CITY           SKY/WX    TMP DP  RH WIND       PRES   REMARKS
CENTRAL PARK   MOSUNNY   79  48  33 NE9G17    29.93R
LAGUARDIA APRT PTSUNNY   80  52  37 NW14G22   29.89R
KENNEDY INTL   MOSUNNY   80  47  31 N15G25    29.89R
NEWARK/LIBERTY MOSUNNY   80  49  33 NW16G24   29.90R
BRNX BOT. GARD   N/A     79  50  36 NW7       29.92R
TETERBORO      MOSUNNY   80  48  32 N10       29.89R
$$

NYZ177-179-078>081-282200-
LONG ISLAND NEW YORK

CITY           SKY/WX    TMP DP  RH WIND       PRES   REMARKS
FARMINGDALE    MOSUNNY   78  50  37 N9        29.89R
ISLIP          MOSUNNY   79  53  40 N14       29.87R
SHIRLEY        SUNNY     80  54  40 NW14      29.89R
WESTHAMPTON    MOSUNNY   81  53  37 NW15G21   29.88R
MONTAUK POINT    N/A     79  59  50 NW9       29.86R
$$

NYZ052-065-067-282200-
HUDSON VALLEY

CITY           SKY/WX    TMP DP  RH WIND       PRES   REMARKS
WHITE PLAINS   MOSUNNY   78  49  35 NW13      29.90R
NEWBURGH       PTSUNNY   75  52  43 N12       29.93R
MONTGOMERY     SUNNY     76  49  38 NW16G24   29.93R
POUGHKEEPSIE   PTSUNNY   77  49  37 NW13      29.90R
ALBANY         PTSUNNY   72  53  51 NW16G24   29.92R
$$

NJZ001-105-106-008-010-013-015-019>022-104-282200-
NEW JERSEY

CITY           SKY/WX    TMP DP  RH WIND       PRES   REMARKS
NEWARK/LIBERTY MOSUNNY   80  49  33 NW16G24   29.90R
TETERBORO      MOSUNNY   80  48  32 N10       29.89R
CALDWELL       SUNNY     78  50  37 NW9G17    29.92R
MORRISTOWN     MOSUNNY   77  50  38 N9G18     29.93R
SOMERVILLE     PTSUNNY   80  51  36 N10       29.92R
LINDEN         FAIR      84  52  32 NW13      29.93R
SUSSEX         SUNNY     78  52  40 NW8       29.95R
ANDOVER          N/A     75  51  43 N9        29.96R
TRENTON        SUNNY     78  51  38 N13G18    29.93R
MILLVILLE      SUNNY     81  55  40 NW10      29.94R
ATLANTIC CITY  SUNNY     80  55  42 NW13      29.92R
WRIGHTSTOWN    SUNNY     78  54  43 NW10      29.91R
TOMS RIVER     MOSUNNY   79  54  41 NW9       29.93R
BELMAR         SUNNY     79  52  38 NW10G18   29.92R
$$

PAZ047>061-062-071-282200-
EASTERN PENNSYLVANIA

CITY           SKY/WX    TMP DP  RH WIND       PRES   REMARKS
PHILADELPHIA   MOSUNNY   80  50  34 NW13G21   29.95R
ALLENTOWN      MOSUNNY   76  50  40 NW10G20   29.97R
SCRANTON       PTSUNNY   74  49  41 NW13      30.00R
$$

CTZ002-004>006-009-010-012-RIZ004-006-007-MAZ004-011-015-282200-
SOUTHERN NEW ENGLAND
 IN CT

CITY           SKY/WX    TMP DP  RH WIND       PRES   REMARKS
BRADLEY INTL   PTSUNNY   75  54  47 NW13      29.87R
HARTFORD       PTSUNNY   75  54  47 NW12G21   29.87R
DANBURY        MOSUNNY   75  51  43 NW7       29.92R
WTRBRY/OXFORD  MOSUNNY   75  54  46 N15       29.93R
BRIDGEPORT     MOSUNNY   78  50  37 NW18      29.88R
MERIDEN        PTSUNNY   78  51  38 NW16G24   29.88R
NEW HAVEN      MOSUNNY   80  52  37 NW8G18    29.88R
CHESTER        MOCLDY    77  55  47 N12       29.89R
GROTON         SUNNY     79  52  38 N16       29.84R
WILLIMANTIC    CLOUDY    77  55  46 N6        29.86R

 IN RI

CITY           SKY/WX    TMP DP  RH WIND       PRES   REMARKS
PROVIDENCE     PTSUNNY   79  53  40 N14G20    29.84R
BLOCK ISLAND   MOSUNNY   79  57  47 N9        29.85R
WESTERLY       PTSUNNY   81  54  39 N13G20    29.84R

 IN MA

CITY           SKY/WX    TMP DP  RH WIND       PRES   REMARKS
BOSTON         PTSUNNY   80  48  32 NW12G25   29.82R
WORCESTER      PTSUNNY   71  49  45 N15       29.89R
WESTFIELD      PTSUNNY   75  55  49 NW13G22   29.88R
PROVINCETOWN   MOSUNNY   72  59  64 N3        29.82R
NANTUCKET      SUNNY     75  54  47 NE8       29.81R
$$

ANZ330-335-338-340-345-350-353-355-282200-
COASTAL MARINE OBSERVATIONS


STATION/POSITION TIME  SKY/WX   TEMP    WIND        PRES    VSBY  WAVE
                                AIR SEA DIR/SP/G                  HT/PER
                 (UTC)          (F)     (DEG/KT/KT) (MB)    (MI)  (FT/S)
NY HARB ENTRANCE NOT AVBL
4S FIRE IS       NOT AVBL
23SW MTP         2100                                 N/A           5/13
HUDSON CANYON    2100            73 73  310/ 14/ 16 1011.9          6/13
EXECUTION ROCKS  2100            78 74  330/ 14/ 19   N/A
WESTERN LI SOUND 2100            77     330/ 14/ 17   N/A           1
CENTRAL LI SOUND 2000            75 72  290/ 12/ 14   N/A           2/ 3
EASTERN LI SOUND 2000            76 68  320/ 14/ 19   N/A
ROBBINS REEF     2100            77     320/ 16/ 19   N/A
$$


>>>>>>>>>>>>>>>>>>>>>>>>>>>> KEY <<<<<<<<<<<<<<<<<<<<<<<<<<<
>                                                          <
>     SKY/WX - SKY CONDITION/PRESENT WEATHER               <
>     TMP    - TEMPERATURE IN FAHRENHEIT                   <
>     DP     - DEWPOINT IN FAHRENHEIT                      <
>     RH     - RELATIVE HUMIDITY IN PERCENT                <
>     WIND   - DIRECTION AND SPEED IN MPH                  <
>     PRES   - MEAN SEA LEVEL PRESSURE IN INCHES OF HG     <
>     WCI    - WIND CHILL INDEX                            <
>     VSB    - VISIBILITY IN MILES                         <
>     HX     - HEAT INDEX                                  <
>     TC     - TEMPERATURE IN CELSIUS                      <
>     VRB    - VARIABLE WIND DIRECTION                     <
>                                                          <
>>>>>>>>>>>>>>>>>>>>>>>>>>>> KEY <<<<<<<<<<<<<<<<<<<<<<<<<<<




USA.gov is the U.S. government's official web portal to all federal, state and local government web resources and services.